Terminal Aerodrome Forecast
Issued by NWS Chicago, IL

Home | Current Version | Previous Version | Text Only | Print | Product List | Glossary Off
Versions: 1 2 3 4 5 6 7 8 9 10 11 12 13 14 15 16 17 18 19 20 21 22 23 24 25 26 27 28 29 30 31 32

000
FTUS43 KLOT 230100 AAA
TAFRFD
TAF AMD
KRFD 230105Z 2301/2324 24009KT P6SM SCT027 BKN040
     FM230250 34010KT P6SM SCT030
     FM230500 01010G16KT P6SM SCT030
     FM231400 02012G18KT P6SM SCT040=

USA.gov is the U.S. government's official web portal to all federal, state and local government web resources and services.